Flag for USA

Past Weather in Nashville, Tennessee, USA — Yesterday and Last 2 Weeks

Now
65 °F

Passing clouds.


Feels Like: 65 °F
Forecast: 76 / 59 °F
Wind: 6 mph from North

Location: Nashville International Airport
Current Time: Sep 18, 2020 at 4:09:48 am
Latest Report: Sep 18, 2020 at 2:53 am
Visibility: 10 mi
Pressure29.96 "Hg
Humidity: 76%
Dew Point: 57 °F
Location of NashvilleLocation

Past Weather in Nashville — Graph

°F

Nashville Temperature Yesterday

Maximum temperature yesterday: 86 °F (at 2:53 pm)
Minimum temperature yesterday: 69 °F (at 11:53 pm)
Average temperature yesterday: 77 °F

High & Low Weather Summary for the Past Weeks

 TemperatureHumidityPressure
High92 °F (Sep 10, 3:53 pm)94% (Sep 13, 9:53 am)30.32 "Hg (Sep 13, 9:53 am)
Low60 °F (Sep 5, 3:53 am)31% (Sep 6, 2:53 pm)29.85 "Hg (Sep 3, 4:53 am)
Average76 °F72%30.07 "Hg
* Reported Sep 3 1:53 am — Sep 18 1:53 am, Nashville. Weather by CustomWeather, © 2020

Note: Actual official high and low records may vary slightly from our data, if they occured in-between our weather recording intervals... More about our weather records

Nashville Weather History for the Previous 24 Hours

Scroll right to see more
 ConditionsComfort  
Time TempWeatherWind HumidityBarometerVisibility
1:53 am
Fri, Sep 18
67 °FPassing clouds.8 mph71%29.96 "Hg10 mi
12:53 am67 °FPassing clouds.9 mph71%29.95 "Hg10 mi
11:53 pm
Thu, Sep 17
69 °FPassing clouds.7 mph66%29.96 "Hg10 mi
10:53 pm70 °FPassing clouds.9 mph64%29.95 "Hg10 mi
9:53 pm71 °FClear.7 mph61%29.95 "Hg10 mi
8:53 pm72 °FPassing clouds.6 mph61%29.94 "Hg10 mi
7:53 pm74 °FPassing clouds.9 mph60%29.92 "Hg10 mi
6:53 pm76 °FPassing clouds.8 mph60%29.89 "Hg10 mi
5:53 pm80 °FPassing clouds.15 mph52%29.88 "Hg10 mi
4:53 pm82 °FScattered clouds.14 mph49%29.87 "Hg10 mi
3:53 pm84 °FScattered clouds.13 mph45%29.86 "Hg10 mi
2:53 pm86 °FBroken clouds.14 mph48%29.86 "Hg10 mi
1:53 pm85 °FScattered clouds.10 mph50%29.87 "Hg10 mi
12:53 pm85 °FBroken clouds.14 mph53%29.89 "Hg10 mi
11:53 am81 °FBroken clouds.14 mph60%29.91 "Hg10 mi
10:53 am81 °FPartly sunny.17 mph58%29.92 "Hg10 mi
9:53 am80 °FPassing clouds.20 mph60%29.93 "Hg10 mi
8:53 am78 °FPassing clouds.13 mph66%29.91 "Hg10 mi
7:53 am74 °FScattered clouds.8 mph79%29.90 "Hg10 mi
6:53 am72 °FPassing clouds.10 mph84%29.89 "Hg10 mi
5:53 am73 °FPartly sunny.10 mph81%29.88 "Hg10 mi
4:53 am73 °FPassing clouds.9 mph84%29.88 "Hg10 mi
Weather by CustomWeather, © 2020

See weather overview